GW4137 Weather Reports


time (UTC)temp
C
wind
direction
speed
KPH
gust
KPH
rain 1hr
cm
rain 24hr
cm
rain mn
cm
humidity
%
barometer
mb
20260905221558 21 323 4.8 14.5 0.00 0.10 0.10 44 1018.4
20260905220059 22 0 0.0 12.9 0.00 0.10 0.10 44 1018.5
20260905214553 22 325 1.6 12.9 0.00 0.10 0.10 44 1018.6
20260905213107 21 17 0.0 12.9 0.00 0.10 0.10 42 1018.6
20260905211609 21 5 3.2 11.3 0.00 0.10 0.10 43 1018.6
20260905210104 21 308 6.4 14.5 0.00 0.10 0.10 44 1018.7
20260905204600 21 273 4.8 12.9 0.00 0.10 0.10 45 1018.8
20260905203100 21 288 4.8 16.1 0.00 0.10 0.10 45 1018.9
20260905201554 20 0 3.2 14.5 0.00 0.10 0.10 45 1019.0
20260905200058 20 285 1.6 9.7 0.00 0.10 0.10 45 1019.0
20260905194604 20 285 4.8 14.5 0.00 0.10 0.10 47 1019.1
20260905193057 20 0 3.2 12.9 0.00 0.10 0.10 47 1019.1
20260905191552 20 0 4.8 14.5 0.00 0.10 0.10 48 1019.2
20260905184603 19 300 9.7 16.1 0.00 0.10 0.10 54 1019.4
20260905183125 18 298 6.4 16.1 0.00 0.10 0.10 55 1019.5
20260905181557 19 308 3.2 17.7 0.00 0.10 0.10 56 1019.5
20260905180057 18 313 6.4 12.9 0.00 0.10 0.10 57 1019.8
20260905174555 17 340 8.0 16.1 0.00 0.10 0.10 60 1019.8
20260905173101 17 332 6.4 16.1 0.00 0.10 0.10 68 1019.8
20260905171605 16 339 4.8 9.7 0.03 0.10 0.10 70 1020.0
20260905170057 15 344 3.2 14.5 0.03 0.10 0.10 73 1019.9
20260905164602 15 328 1.6 8.0 0.03 0.10 0.10 77 1020.1
20260905163054 14 328 0.0 6.4 0.03 0.10 0.10 84 1019.9
20260905161557 13 0 4.8 9.7 0.00 0.08 0.08 88 1019.8
20260905160053 13 331 4.8 8.0 0.03 0.08 0.08 89 1019.8
20260905154601 12 0 0.0 0.0 0.03 0.08 0.08 90 1019.7
20260905153059 12 0 0.0 0.0 0.03 0.08 0.08 91 1019.8
20260905151559 12 0 0.0 6.4 0.03 0.08 0.08 91 1019.6
20260905150104 12 332 3.2 8.0 0.00 0.05 0.05 92 1019.2
20260905144553 11 0 0.0 0.0 0.03 0.05 0.05 92 1019.3
20260905143101 11 332 3.2 14.5 0.03 0.05 0.05 91 1019.2
20260905141558 10 336 6.4 16.1 0.05 0.05 0.05 92 1018.8
20260905140104 10 360 9.7 16.1 0.05 0.05 0.05 91 1018.6
20260905134553 10 293 4.8 12.9 0.03 0.03 0.03 90 1019.3
20260905133100 10 291 6.4 17.7 0.03 0.03 0.03 88 1019.7
20260905131610 11 281 11.3 17.7 0.00 0.00 0.00 86 1019.9
20260905130105 11 281 11.3 19.3 0.00 0.00 0.00 85 1019.4
20260905124558 11 284 0.0 9.7 0.00 0.00 0.00 83 1018.6
20260905123104 11 0 0.0 6.4 0.00 0.00 0.00 81 1018.8
20260905121553 11 283 3.2 11.3 0.00 0.00 0.00 80 1017.8
20260905120106 11 273 4.8 12.9 0.00 0.00 0.00 78 1018.7
20260905114601 11 273 6.4 14.5 0.00 0.00 0.00 77 1018.6
20260905113054 11 280 4.8 16.1 0.00 0.00 0.00 77 1018.1
20260905111612 11 294 9.7 16.1 0.00 0.00 0.00 76 1017.9
20260905110058 11 290 11.3 19.3 0.00 0.00 0.00 77 1017.8
20260905104555 11 284 9.7 17.7 0.00 0.00 0.00 78 1017.7
20260905103054 11 281 9.7 17.7 0.00 0.00 0.00 77 1017.6
20260905101605 11 290 9.7 17.7 0.00 0.00 0.00 77 1017.3
20260905100053 11 283 8.0 20.9 0.00 0.00 0.00 78 1017.5
20260905094553 10 288 4.8 8.0 0.00 0.00 0.00 78 1017.3
20260905093101 11 286 6.4 16.1 0.00 0.00 0.00 77 1017.2
20260905091554 11 283 6.4 14.5 0.00 0.00 0.00 75 1017.4
20260905090059 11 311 3.2 8.0 0.00 0.00 0.00 74 1017.0
20260905084600 10 317 3.2 8.0 0.00 0.00 0.00 77 1016.3
20260905083058 11 0 0.0 3.2 0.00 0.00 0.00 75 1016.5
20260905081603 11 0 0.0 0.0 0.00 0.00 0.00 76 1016.1
20260905080054 11 317 1.6 9.7 0.00 0.00 0.00 76 1015.9
20260905074558 11 0 0.0 0.0 0.00 0.00 0.00 73 1016.7
20260905073103 11 0 0.0 0.0 0.00 0.00 0.00 72 1017.5
20260905071552 12 0 0.0 8.0 0.00 0.00 0.00 70 1017.1
20260905070052 12 318 3.2 12.9 0.00 0.00 0.00 68 1017.0
20260905064551 12 322 6.4 19.3 0.00 0.00 0.00 68 1016.4
20260905063055 12 328 12.9 20.9 0.00 0.00 0.00 69 1016.0
20260905061554 12 327 11.3 19.3 0.00 0.00 0.00 68 1016.3
20260905060053 13 298 6.4 17.7 0.00 0.00 0.00 66 1016.5
20260905054551 13 296 8.0 16.1 0.00 0.00 0.00 65 1016.5
20260905053136 13 0 3.2 12.9 0.00 0.00 0.00 65 1016.4
20260905051554 13 310 6.4 14.5 0.00 0.00 0.00 66 1015.9
20260905050052 14 302 9.7 19.3 0.00 0.00 0.00 65 1015.9
20260905044601 14 326 4.8 9.7 0.00 0.00 0.00 62 1016.4
20260905043056 15 0 0.0 4.8 0.00 0.00 0.00 59 1016.1
20260905041552 16 0 0.0 0.0 0.00 0.00 0.00 55 1015.8
20260905040053 15 0 0.0 6.4 0.00 0.00 0.00 55 1016.0
20260905034559 15 0 0.0 0.0 0.00 0.00 0.00 54 1015.5
20260905033103 16 0 0.0 8.0 0.00 0.00 0.00 52 1015.0
20260905031553 16 338 8.0 16.1 0.00 0.00 0.00 51 1014.6
20260905030053 16 325 8.0 14.5 0.00 0.00 0.00 49 1015.1
20260905024607 16 326 4.8 9.7 0.00 0.00 0.00 50 1014.8
20260905023105 16 0 0.0 6.4 0.00 0.00 0.00 48 1014.3
20260905021553 18 326 3.2 14.5 0.00 0.00 0.00 45 1014.1
20260905020109 18 322 6.4 14.5 0.00 0.00 0.00 43 1014.0
20260905014559 18 321 9.7 24.1 0.00 0.00 0.00 42 1013.5
20260905013053 18 344 17.7 29.0 0.00 0.00 0.00 42 1012.7
20260905011621 19 352 12.9 32.2 0.00 0.00 0.00 41 1012.6
20260905010059 20 331 20.9 32.2 0.00 0.00 0.00 39 1012.1
20260905004600 20 338 22.5 33.8 0.00 0.00 0.00 39 1012.3
20260905003101 20 326 24.1 35.4 0.00 0.00 0.00 38 1012.3
20260905001600 21 319 22.5 37.0 0.00 0.00 0.00 37 1012.5
20260904234558 21 352 19.3 29.0 0.00 0.00 0.00 37 1012.8
20260904233102 22 352 19.3 30.6 0.00 0.00 0.00 34 1013.0
20260904231552 22 340 16.1 33.8 0.00 0.00 0.00 34 1012.8
20260904230057 22 333 25.7 38.6 0.00 0.00 0.00 34 1012.7
20260904224604 22 319 12.9 30.6 0.00 0.00 0.00 35 1012.6
20260904223104 22 307 19.3 30.6 0.00 0.00 0.00 35 1012.6